Change the Weather History Date:

Friday, November 16, 2012

  Actual Average Record
Temperature  
Mean Temperature 64 °F -  
Max Temperature 77 °F 70 °F 86 °F (1999)
Min Temperature 51 °F 49 °F 39 °F (2000)
Degree Days  
Heating Degree Days 1    
Growing Degree Days 14 (Base 50)    
Moisture  
Dew Point 26 °F    
Average Humidity 25    
Maximum Humidity 39    
Minimum Humidity 15    
Precipitation  
Precipitation 0.00 in - - ()
Sea Level Pressure  
Sea Level Pressure 30.02 in    
Wind  
Wind Speed 2 mph (SE)    
Max Wind Speed 13 mph    
Max Gust Speed -    
Visibility 10 miles    
Events      
Averages and records for this station are not official NWS values.
T = Trace of Precipitation, MM = Missing Value Source: NWS Daily Summary

Daily Weather History Graph

Daily Weather History Graph

Search for Another Location

Airport or City:

Trip Planner

Search our weather history database for the weather conditions in past years. The results will help you decide how hot, cold, wet, or windy it might be!

Date:

Astronomy

Nov. 16, 2012 Rise Set
Actual Time 7:01 AM MST 5:24 PM MST
Civil Twilight 6:35 AM MST 5:50 PM MST
Nautical Twilight 6:04 AM MST 6:21 PM MST
Astronomical Twilight 5:35 AM MST 6:50 PM MST
Moon 9:57 AM MST (11/16) 8:29 PM MST (11/16)
Length of Visible Light 11h 15m
Length of Day
10h 22m
Waxing Crescent, 12% of the Moon is Illuminated
Nov 16
Waxing Crescent
Nov 20
First Quarter
Nov 28
Full
Dec 6
Last Quarter
Dec 13
New

Hourly Weather History & Observations

Time (MST) Temp. Dew Point Humidity Pressure Visibility Wind Dir Wind Speed Gust Speed Precip Events Conditions
12:53 AM 61.0 °F 27.0 °F 27% 30.01 in 10.0 mi Calm Calm - N/A   Clear
1:53 AM 60.1 °F 28.0 °F 30% 30.00 in 10.0 mi Calm Calm - N/A   Clear
2:53 AM 57.9 °F 28.9 °F 33% 30.00 in 10.0 mi Calm Calm - N/A   Clear
3:53 AM 60.1 °F 28.9 °F 31% 29.99 in 10.0 mi East 8.1 mph - N/A   Clear
4:53 AM 54.0 °F 27.0 °F 35% 30.00 in 10.0 mi North 3.5 mph - N/A   Clear
5:53 AM 51.1 °F 27.0 °F 39% 30.01 in 10.0 mi Calm Calm - N/A   Clear
6:53 AM 51.1 °F 26.1 °F 38% 30.02 in 10.0 mi Calm Calm - N/A   Clear
7:53 AM 53.1 °F 27.0 °F 37% 30.05 in 10.0 mi Calm Calm - N/A   Clear
8:53 AM 61.0 °F 27.0 °F 27% 30.06 in 10.0 mi Calm Calm - N/A   Clear
9:53 AM 68.0 °F 26.1 °F 21% 30.06 in 10.0 mi Calm Calm - N/A   Clear
10:53 AM 71.1 °F 24.1 °F 17% 30.06 in 10.0 mi Calm Calm - N/A   Clear
11:53 AM 73.9 °F 26.1 °F 17% 30.04 in 10.0 mi South 8.1 mph - N/A   Clear
12:53 PM 75.0 °F 28.0 °F 18% 30.02 in 10.0 mi South 8.1 mph - N/A   Clear
1:53 PM 75.9 °F 28.9 °F 18% 29.99 in 10.0 mi SSW 5.8 mph - N/A   Clear
2:53 PM 77.0 °F 27.0 °F 16% 29.98 in 10.0 mi SSW 4.6 mph - N/A   Clear
3:53 PM 75.9 °F 25.0 °F 15% 29.98 in 10.0 mi Variable 4.6 mph - N/A   Clear
4:53 PM 75.0 °F 25.0 °F 16% 29.98 in 10.0 mi SSW 6.9 mph - N/A   Clear
5:53 PM 71.1 °F 24.1 °F 17% 29.99 in 10.0 mi Calm Calm - N/A   Clear
6:53 PM 69.1 °F 25.0 °F 19% 30.01 in 10.0 mi Calm Calm - N/A   Clear
7:53 PM 63.0 °F 25.0 °F 24% 30.01 in 10.0 mi NE 3.5 mph - N/A   Partly Cloudy
8:53 PM 63.0 °F 26.1 °F 25% 30.02 in 10.0 mi Calm Calm - N/A   Clear
9:53 PM 62.1 °F 26.1 °F 25% 30.03 in 10.0 mi Calm Calm - N/A   Clear
10:53 PM 59.0 °F 25.0 °F 27% 30.03 in 10.0 mi NE 5.8 mph - N/A   Clear
11:53 PM 61.0 °F 27.0 °F 27% 30.02 in 10.0 mi NNE 12.7 mph - N/A   Clear